| time (UTC) | temp C | wind direction | speed KPH | gust KPH | rain 1hr cm | rain 24hr cm | rain mn cm | humidity % | barometer mb |
| 20260831071536 | 16 | 86 | 3.2 | 9.7 | 0.00 | 0.00 | 0.00 | 55 | 1027.5 |
| 20260831070027 | 16 | 63 | 8.0 | 17.7 | 0.00 | 0.00 | 0.00 | 54 | 1027.5 |
| 20260831064546 | 17 | 98 | 6.4 | 14.5 | 0.00 | 0.00 | 0.00 | 53 | 1027.3 |
| 20260831063024 | 17 | 85 | 11.3 | 20.9 | 0.00 | 0.00 | 0.00 | 52 | 1027.3 |
| 20260831061527 | 18 | 104 | 9.7 | 17.7 | 0.00 | 0.00 | 0.00 | 51 | 1027.1 |
| 20260831060014 | 18 | 54 | 4.8 | 12.9 | 0.00 | 0.00 | 0.00 | 50 | 1026.9 |
| 20260831054537 | 18 | 52 | 9.7 | 17.7 | 0.00 | 0.00 | 0.00 | 51 | 1026.9 |
| 20260831053020 | 18 | 83 | 11.3 | 17.7 | 0.00 | 0.00 | 0.00 | 48 | 1027.0 |
| 20260831051538 | 20 | 120 | 6.4 | 11.3 | 0.00 | 0.00 | 0.00 | 43 | 1026.9 |
| 20260831050011 | 21 | 175 | 0.0 | 6.4 | 0.00 | 0.00 | 0.00 | 39 | 1027.0 |
| 20260831044516 | 20 | 89 | 0.0 | 4.8 | 0.00 | 0.00 | 0.00 | 38 | 1027.1 |
| 20260831043008 | 20 | 47 | 4.8 | 14.5 | 0.00 | 0.00 | 0.00 | 36 | 1027.2 |
| 20260831041506 | 20 | 292 | 0.0 | 4.8 | 0.00 | 0.00 | 0.00 | 41 | 1027.3 |
| 20260831040057 | 19 | 109 | 1.6 | 4.8 | 0.00 | 0.00 | 0.00 | 37 | 1027.3 |
| 20260831034558 | 19 | 246 | 1.6 | 11.3 | 0.00 | 0.00 | 0.00 | 39 | 1027.5 |
| 20260831033103 | 19 | 40 | 4.8 | 9.7 | 0.00 | 0.00 | 0.00 | 37 | 1027.8 |
| 20260831031600 | 20 | 300 | 4.8 | 11.3 | 0.00 | 0.00 | 0.00 | 36 | 1027.9 |
| 20260831030044 | 19 | 274 | 1.6 | 9.7 | 0.00 | 0.00 | 0.00 | 38 | 1028.2 |
| 20260831024508 | 18 | 238 | 1.6 | 11.3 | 0.00 | 0.00 | 0.00 | 40 | 1028.4 |
| 20260831023045 | 18 | 147 | 3.2 | 9.7 | 0.00 | 0.00 | 0.00 | 39 | 1028.6 |
| 20260831021536 | 18 | 95 | 4.8 | 9.7 | 0.00 | 0.00 | 0.00 | 37 | 1029.0 |
| 20260831020016 | 18 | 118 | 1.6 | 9.7 | 0.00 | 0.00 | 0.00 | 41 | 1029.3 |
| 20260831014530 | 18 | 116 | 4.8 | 11.3 | 0.00 | 0.00 | 0.00 | 38 | 1029.6 |
| 20260831013059 | 18 | 244 | 0.0 | 6.4 | 0.00 | 0.00 | 0.00 | 43 | 1029.9 |
| 20260831011554 | 18 | 285 | 0.0 | 6.4 | 0.00 | 0.00 | 0.00 | 45 | 1030.1 |
| 20260831010030 | 18 | 252 | 1.6 | 8.0 | 0.00 | 0.00 | 0.00 | 41 | 1030.3 |
| 20260831004529 | 17 | 246 | 0.0 | 6.4 | 0.00 | 0.00 | 0.00 | 60 | 1030.3 |
| 20260831003058 | 16 | 215 | 0.0 | 6.4 | 0.00 | 0.00 | 0.00 | 61 | 1030.4 |
| 20260831003007 | 16 | 257 | 0.0 | 6.4 | 0.00 | 0.00 | 0.00 | 59 | 1030.4 |
| 20260831001548 | 16 | 300 | 1.6 | 6.4 | 0.00 | 0.00 | 0.00 | 61 | 1030.4 |
| 20260831000034 | 15 | 267 | 0.0 | 6.4 | 0.00 | 0.00 | 0.00 | 64 | 1030.4 |
| 20260830234534 | 15 | 267 | 1.6 | 6.4 | 0.00 | 0.00 | 0.00 | 67 | 1030.5 |
| 20260830233054 | 14 | 331 | 1.6 | 6.4 | 0.00 | 0.00 | 0.00 | 67 | 1030.6 |
| 20260830231558 | 13 | 304 | 0.0 | 4.8 | 0.00 | 0.00 | 0.00 | 71 | 1030.6 |
| 20260830230037 | 13 | 263 | 0.0 | 1.6 | 0.00 | 0.00 | 0.00 | 75 | 1030.7 |
| 20260830224527 | 12 | 35 | 0.0 | 1.6 | 0.00 | 0.00 | 0.00 | 76 | 1030.8 |
| 20260830223022 | 10 | 303 | 0.0 | 3.2 | 0.00 | 0.00 | 0.00 | 86 | 1031.0 |
| 20260830221511 | 8 | 284 | 0.0 | 3.2 | 0.00 | 0.00 | 0.00 | 88 | 1031.0 |
| 20260830220046 | 7 | 273 | 1.6 | 3.2 | 0.00 | 0.00 | 0.00 | 88 | 1031.0 |
| 20260830214547 | 6 | 289 | 0.0 | 1.6 | 0.00 | 0.00 | 0.00 | 89 | 1030.9 |
| 20260830213009 | 5 | 294 | 0.0 | 1.6 | 0.00 | 0.00 | 0.00 | 90 | 1030.7 |
| 20260830211507 | 5 | 286 | 1.6 | 3.2 | 0.00 | 0.00 | 0.00 | 90 | 1030.5 |
| 20260830210048 | 4 | 301 | 0.0 | 3.2 | 0.00 | 0.00 | 0.00 | 92 | 1030.4 |
| 20260830204502 | 3 | 310 | 0.0 | 1.6 | 0.00 | 0.00 | 0.00 | 94 | 1030.2 |
| 20260830203047 | 3 | 319 | 0.0 | 1.6 | 0.00 | 0.00 | 0.00 | 95 | 1030.1 |
| 20260830201550 | 2 | 7 | 0.0 | 0.0 | 0.00 | 0.00 | 0.00 | 94 | 1030.0 |
| 20260830200027 | 2 | 7 | 0.0 | 0.0 | 0.00 | 0.03 | 0.00 | 93 | 1029.8 |
| 20260830194543 | 3 | 315 | 0.0 | 1.6 | 0.00 | 0.03 | 0.00 | 93 | 1029.7 |
| 20260830193028 | 3 | 298 | 1.6 | 4.8 | 0.00 | 0.03 | 0.00 | 93 | 1029.4 |
| 20260830191555 | 3 | 303 | 0.0 | 3.2 | 0.00 | 0.03 | 0.00 | 93 | 1029.3 |
| 20260830190101 | 3 | 301 | 1.6 | 3.2 | 0.00 | 0.03 | 0.00 | 93 | 1029.3 |
| 20260830184559 | 3 | 303 | 0.0 | 3.2 | 0.00 | 0.03 | 0.00 | 92 | 1029.3 |
| 20260830183041 | 3 | 289 | 0.0 | 1.6 | 0.00 | 0.03 | 0.00 | 91 | 1029.4 |
| 20260830181547 | 3 | 305 | 0.0 | 0.0 | 0.00 | 0.03 | 0.00 | 91 | 1029.5 |
| 20260830180034 | 4 | 292 | 0.0 | 1.6 | 0.00 | 0.03 | 0.00 | 89 | 1029.5 |
| 20260830174608 | 5 | 24 | 0.0 | 4.8 | 0.00 | 0.03 | 0.00 | 91 | 1029.5 |
| 20260830173029 | 4 | 33 | 0.0 | 0.0 | 0.00 | 0.03 | 0.00 | 89 | 1029.7 |
| 20260830171545 | 5 | 34 | 0.0 | 1.6 | 0.00 | 0.03 | 0.00 | 90 | 1029.8 |
| 20260830170036 | 5 | 316 | 0.0 | 1.6 | 0.00 | 0.03 | 0.00 | 89 | 1030.0 |
| 20260830164526 | 5 | 304 | 0.0 | 3.2 | 0.00 | 0.03 | 0.00 | 89 | 1030.0 |
| 20260830163016 | 5 | 301 | 0.0 | 1.6 | 0.00 | 0.03 | 0.00 | 91 | 1030.0 |
| 20260830161522 | 4 | 315 | 0.0 | 1.6 | 0.00 | 0.03 | 0.00 | 91 | 1030.2 |
| 20260830160004 | 5 | 305 | 0.0 | 1.6 | 0.00 | 0.03 | 0.00 | 89 | 1030.2 |
| 20260830154601 | 5 | 308 | 0.0 | 1.6 | 0.00 | 0.03 | 0.00 | 89 | 1030.2 |
| 20260830153035 | 5 | 313 | 0.0 | 4.8 | 0.00 | 0.03 | 0.00 | 88 | 1030.4 |
| 20260830151540 | 5 | 324 | 0.0 | 1.6 | 0.00 | 0.03 | 0.00 | 87 | 1030.4 |
| 20260830150023 | 5 | 312 | 0.0 | 1.6 | 0.00 | 0.03 | 0.00 | 87 | 1030.3 |
| 20260830144550 | 5 | 308 | 0.0 | 1.6 | 0.00 | 0.03 | 0.00 | 87 | 1030.4 |
| 20260830143032 | 5 | 308 | 0.0 | 1.6 | 0.00 | 0.03 | 0.00 | 87 | 1030.5 |
| 20260830141541 | 5 | 307 | 0.0 | 1.6 | 0.00 | 0.03 | 0.00 | 86 | 1030.5 |
| 20260830140002 | 6 | 313 | 0.0 | 1.6 | 0.00 | 0.03 | 0.03 | 86 | 1030.4 |
| 20260830134524 | 6 | 65 | 0.0 | 1.6 | 0.00 | 0.03 | 0.03 | 85 | 1030.5 |
| 20260830133029 | 6 | 316 | 0.0 | 1.6 | 0.00 | 0.03 | 0.03 | 85 | 1030.6 |
| 20260830131549 | 6 | 342 | 0.0 | 0.0 | 0.00 | 0.03 | 0.03 | 82 | 1030.5 |
| 20260830130028 | 6 | 331 | 0.0 | 1.6 | 0.00 | 0.03 | 0.03 | 83 | 1030.7 |
| 20260830124543 | 6 | 317 | 0.0 | 1.6 | 0.00 | 0.03 | 0.03 | 82 | 1030.7 |
| 20260830123032 | 7 | 322 | 0.0 | 1.6 | 0.00 | 0.03 | 0.03 | 82 | 1030.7 |
| 20260830121544 | 7 | 305 | 0.0 | 1.6 | 0.00 | 0.03 | 0.03 | 82 | 1030.7 |
| 20260830120025 | 7 | 301 | 0.0 | 1.6 | 0.00 | 0.03 | 0.03 | 80 | 1030.6 |
| 20260830114541 | 7 | 301 | 0.0 | 1.6 | 0.00 | 0.03 | 0.03 | 80 | 1030.7 |
| 20260830113019 | 7 | 7 | 0.0 | 0.0 | 0.00 | 0.03 | 0.03 | 77 | 1030.6 |
| 20260830111535 | 8 | 8 | 0.0 | 0.0 | 0.00 | 0.03 | 0.03 | 75 | 1030.4 |
| 20260830110018 | 8 | 330 | 0.0 | 1.6 | 0.00 | 0.03 | 0.03 | 73 | 1030.4 |
| 20260830104533 | 9 | 17 | 0.0 | 0.0 | 0.00 | 0.03 | 0.03 | 72 | 1030.3 |
| 20260830103031 | 9 | 334 | 0.0 | 0.0 | 0.00 | 0.03 | 0.03 | 71 | 1030.3 |
| 20260830101537 | 10 | 274 | 0.0 | 0.0 | 0.00 | 0.03 | 0.03 | 70 | 1030.0 |
| 20260830100023 | 10 | 274 | 0.0 | 0.0 | 0.00 | 0.03 | 0.03 | 67 | 1029.8 |
| 20260830094544 | 10 | 274 | 0.0 | 0.0 | 0.00 | 0.03 | 0.03 | 67 | 1029.7 |
| 20260830093038 | 10 | 275 | 0.0 | 1.6 | 0.00 | 0.03 | 0.03 | 66 | 1029.6 |
| 20260830091533 | 11 | 274 | 0.0 | 1.6 | 0.00 | 0.03 | 0.03 | 64 | 1029.4 |
| 20260830090030 | 12 | 82 | 0.0 | 4.8 | 0.00 | 0.03 | 0.03 | 59 | 1029.4 |
| 20260830084533 | 13 | 52 | 4.8 | 9.7 | 0.00 | 0.03 | 0.03 | 57 | 1029.2 |
| 20260830083017 | 13 | 64 | 4.8 | 9.7 | 0.00 | 0.03 | 0.03 | 57 | 1028.9 |
| 20260830081525 | 13 | 90 | 6.4 | 17.7 | 0.00 | 0.03 | 0.03 | 56 | 1028.8 |
| 20260830080014 | 13 | 70 | 1.6 | 9.7 | 0.00 | 0.03 | 0.03 | 56 | 1028.5 |
| 20260830074541 | 14 | 102 | 6.4 | 16.1 | 0.00 | 0.03 | 0.03 | 55 | 1028.4 |